Location: Unspecified
(0.0000°N, 0.0000°E)
Time: 15:52:49
(UTC+02:00)

Amateur Radio Satellites - All Passes

Search period start: 28 March 2017 15:22
Search period end: 29 March 2017 15:22
Location: Unspecified, 0.0000°N, 0.0000°E

Satellite Date Start Highest point End Downlink Frequencies (MHz)
Time Altitude Azimuth
DX 1 28 Mar 15:27:06 15:29:46 16° 282° (WNW) 15:32:27 434.975-435.025
JUGNU 28 Mar 15:28:44 15:34:40 64° 21° (NNE) 15:40:37 437.505
ITUPSAT 1 28 Mar 15:32:53 15:34:45 12° 103° (ESE) 15:36:37 437.325
SRMSAT 28 Mar 15:47:15 15:51:34 20° 15° (NNE) 15:55:52 437.500
Gurwin Techsat 1B 28 Mar 15:49:41 15:54:57 63° 258° (WSW) 16:00:11 435.225
NO-84 28 Mar 16:34:01 16:36:58 22° 60° (ENE) 16:40:08 435.350 FM
AO-7 28 Mar 16:49:09 16:57:15 55° 74° (ENE) 17:05:17 .
BEESAT 28 Mar 16:50:08 16:54:45 55° 283° (WNW) 16:59:25 436.000
MOZHAYETS 4 28 Mar 16:50:20 16:54:40 46° 102° (ESE) 16:59:04
ITUPSAT 1 28 Mar 17:08:03 17:12:17 33° 282° (WNW) 17:16:33 437.325
ITAMSAT 1 28 Mar 17:11:32 17:16:43 64° 257° (WSW) 17:21:53 435.822/435.867
JUGNU 28 Mar 17:18:01 17:23:45 47° 201° (SSW) 17:29:31 437.505
O/OREOS (USA 219) 28 Mar 17:30:47 17:34:50 33° 284° (WNW) 17:38:53 437.305
SRMSAT 28 Mar 17:35:19 17:41:04 48° 20° (NNE) 17:46:49 437.500
CUBESAT XI-V 28 Mar 17:48:08 17:52:06 28° 102° (ESE) 17:56:06 437.345
KKS-1 28 Mar 17:54:15 17:58:31 47° 102° (ESE) 18:02:47 437.445
NO-84 28 Mar 18:11:51 18:14:27 17° 235° (SW) 18:17:11 435.350 FM
STARS 28 Mar 18:24:56 18:29:05 43° 102° (ESE) 18:33:14 437.465
AO-7 28 Mar 18:44:03 18:49:36 20° 253° (WSW) 18:55:08 .
Tancredo 1 28 Mar 19:01:49 19:04:48 41° 305° (NW) 19:07:46 437.200
JUGNU 28 Mar 19:08:53 19:13:08 20° 195° (SSW) 19:17:23 437.505
DOVE 4 28 Mar 19:09:29 19:13:19 30° 78° (ENE) 19:17:18 437.250
ISS 28 Mar 19:10:59 19:14:01 37° 305° (NW) 19:17:02 437.550
CUTE-I 28 Mar 19:16:22 19:20:47 26° 77° (ENE) 19:25:09 437.470
SRMSAT 28 Mar 19:24:24 19:30:18 62° 201° (SSW) 19:36:11 437.500
CUBESAT XI-V 28 Mar 19:26:42 19:29:12 14° 282° (WNW) 19:31:43 437.345
XW-2F 28 Mar 19:33:32 19:37:11 43° 79° (E) 19:40:47 145.980 - 146.000
LilacSat-2 28 Mar 19:38:29 19:42:19 60° 78° (ENE) 19:46:05 437.200
M-CUBED/EXP-1 PRIME 28 Mar 19:40:38 19:44:57 42° 105° (ESE) 19:49:05 437.505
NUDT-PHONESAT 28 Mar 19:52:41 19:56:27 72° 79° (E) 20:00:11 437.300
XW-2D 28 Mar 20:00:39 20:04:26 57° 258° (WSW) 20:08:11 145.860 - 145.880
KAITUO 1B 28 Mar 20:02:37 20:06:25 75° 259° (W) 20:10:09 145.475/437.950
YUBILEINY 28 Mar 20:03:27 20:11:34 44° 87° (E) 20:19:44 435.215
XW-2B 28 Mar 20:06:42 20:10:25 47° 259° (W) 20:14:06 145.730 - 145.750
XW-2C 28 Mar 20:17:14 20:20:41 31° 259° (W) 20:24:06 145.795 - 145.815
HO-68 28 Mar 20:29:58 20:36:14 33° 75° (ENE) 20:42:27 435.675
AO-85 28 Mar 20:37:25 20:42:18 55° 291° (WNW) 20:46:49 145.980
DOVE 4 28 Mar 20:49:38 20:50:49 11° 259° (W) 20:52:00 437.250
CUTE-I 28 Mar 20:56:38 21:00:32 21° 257° (WSW) 21:04:26 437.470
JUGNU 28 Mar 21:01:32 21:03:03 11° 186° (S) 21:04:34 437.505
XW-2A 28 Mar 21:04:55 21:08:22 76° 258° (WSW) 21:11:48 145.665 - 145.685
STRAND 1 28 Mar 21:06:30 21:11:35 87° 283° (WNW) 21:16:41 437.568
SEEDS 28 Mar 21:10:11 21:14:11 44° 79° (E) 21:18:09 437.485
SRMSAT 28 Mar 21:14:58 21:19:41 24° 197° (SSW) 21:24:25 437.500
PCSat 28 Mar 21:15:29 21:20:52 74° 71° (ENE) 21:26:16 145.827
CUTE 1.7 + AOD 2 28 Mar 21:20:54 21:25:07 68° 258° (WSW) 21:29:19 437.475
CUBEBUG 2 28 Mar 21:25:01 21:29:34 48° 78° (ENE) 21:34:07 437.445
ZACube-1 28 Mar 21:25:35 21:27:28 12° 78° (ENE) 21:29:20 437.345
BEESAT 3 28 Mar 21:42:50 21:46:35 59° 112° (ESE) 21:50:23 437.485
AO-73 28 Mar 21:50:47 21:54:33 25° 79° (ENE) 21:58:17 145.935
YUBILEINY 28 Mar 22:01:33 22:07:58 23° 267° (W) 22:14:28 435.215
BEESAT 2 28 Mar 22:03:37 22:07:04 31° 112° (ESE) 22:10:32 435.950
HO-68 28 Mar 22:17:50 22:23:37 27° 255° (WSW) 22:29:25 435.675
PRISM 28 Mar 22:18:23 22:19:08 10° 102° (ESE) 22:19:52 437.425
UWE-3 28 Mar 22:23:10 22:27:40 49° 258° (WSW) 22:32:10 435.000/436.395/437.385
AAUSAT CUBESAT 2 28 Mar 22:23:44 22:27:30 35° 258° (WSW) 22:31:14 437.432
RS-15 28 Mar 22:36:13 22:41:11 13° 65° (ENE) 22:46:02 29.354- 29.394
Oscar 11 28 Mar 22:47:46 22:52:02 60° 258° (WSW) 22:56:17 .
JUGNU 28 Mar 22:52:24 22:53:17 10° 175° (S) 22:54:11 437.505
ZACube-1 28 Mar 22:59:26 23:03:28 30° 258° (WSW) 23:07:28 437.345
SRMSAT 28 Mar 23:07:20 23:09:36 12° 189° (S) 23:11:53 437.500
DELFI C3 28 Mar 23:23:04 23:26:59 84° 258° (WSW) 23:30:53 145.870
AO-73 28 Mar 23:27:55 23:30:30 15° 258° (WSW) 23:33:04 145.935
FO-29 28 Mar 23:28:07 23:32:10 23° 103° (ESE) 23:36:13 435.910
TIGRISAT 28 Mar 23:33:12 23:37:19 50° 102° (ESE) 23:41:27 435.000
UNISAT 6 28 Mar 23:43:56 23:48:12 84° 101° (E) 23:52:28 437.425
PRISM 28 Mar 23:50:32 23:54:08 28° 282° (WNW) 23:57:43 437.425
LO-87 29 Mar 00:16:59 00:20:14 33° 79° (ENE) 00:23:28 145.935 - 145.965
QB50P2 29 Mar 00:23:20 00:23:43 10° 102° (ESE) 00:24:05 145.880/145.840
JUGNU 29 Mar 00:39:24 00:43:16 18° 166° (SSE) 00:47:06 437.505
RS-15 29 Mar 00:41:52 00:53:39 86° 250° (WSW) 01:04:50 29.354- 29.394
VELOX 1 29 Mar 00:56:47 00:58:00 11° 78° (ENE) 00:59:12 145.980
AIST 2D 29 Mar 01:10:40 01:14:05 59° 281° (WNW) 01:17:32 435.315
FO-29 29 Mar 01:13:24 01:17:03 19° 283° (WNW) 01:20:39 435.910
NANOSAT C BR1 29 Mar 01:15:29 01:19:34 54° 102° (ESE) 01:23:38 145.865
SPROUT 29 Mar 01:21:21 01:24:40 22° 78° (ENE) 01:27:58 437.525
EO-79 29 Mar 01:21:28 01:25:38 76° 102° (ESE) 01:29:50 145.935-145.965
ESTCUBE 1 29 Mar 01:27:42 01:32:02 49° 258° (WSW) 01:36:20 437.505/2401.250
SO-50 29 Mar 01:29:29 01:33:06 24° 68° (ENE) 01:36:45 436.795
POLYITAN 1 29 Mar 01:50:36 01:54:28 37° 282° (WNW) 01:58:22 437.675
QB50P2 29 Mar 01:55:35 01:59:14 29° 282° (WNW) 02:02:53 145.880/145.840
DX 1 29 Mar 01:59:43 02:03:26 28° 78° (ENE) 02:07:09 434.975-435.025
DUCHIFAT 1 29 Mar 02:04:02 02:07:42 31° 282° (WNW) 02:11:23 145.980
BUGSAT 1 29 Mar 02:10:10 02:14:13 72° 101° (E) 02:18:15 437.445
Oscar 19 29 Mar 02:16:35 02:20:14 19° 103° (ESE) 02:23:52 437.125/150
JUGNU 29 Mar 02:27:10 02:32:40 40° 160° (SSE) 02:38:09 437.505
VELOX 1 29 Mar 02:30:19 02:34:10 30° 258° (WSW) 02:38:01 145.980
50 SAT 29 Mar 02:34:02 02:37:09 33° 258° (WSW) 02:40:17 437.505
UKube-1 29 Mar 02:34:26 02:38:40 58° 78° (ENE) 02:42:52 .
SRMSAT 29 Mar 02:47:00 02:50:12 15° 168° (SSE) 02:53:24 437.500
Gurwin Techsat 1B 29 Mar 02:49:30 02:53:41 24° 103° (ESE) 02:57:52 435.225
SPROUT 29 Mar 02:57:53 03:00:18 15° 258° (WSW) 03:02:43 437.525
RS-15 29 Mar 03:03:52 03:05:45 10° 247° (WSW) 03:07:37 29.354- 29.394
SO-50 29 Mar 03:10:35 03:13:19 16° 247° (WSW) 03:16:03 436.795
BEESAT 29 Mar 03:36:33 03:39:10 15° 77° (ENE) 03:41:45 436.000
DX 1 29 Mar 03:37:56 03:39:21 11° 257° (WSW) 03:40:46 434.975-435.025
ITUPSAT 1 29 Mar 03:53:11 03:57:02 24° 78° (ENE) 04:00:53 437.325
Oscar 19 29 Mar 03:55:01 03:59:15 26° 283° (WNW) 04:03:31 437.125/150
O/OREOS (USA 219) 29 Mar 04:03:40 04:06:43 18° 75° (ENE) 04:09:46 437.305
ITAMSAT 1 29 Mar 04:08:39 04:12:27 21° 103° (ESE) 04:16:14 435.822/435.867
JUGNU 29 Mar 04:15:52 04:21:44 73° 339° (NNW) 04:27:34 437.505
NO-84 29 Mar 04:20:09 04:22:24 16° 125° (SE) 04:24:32 435.350 FM
Gurwin Techsat 1B 29 Mar 04:29:21 04:33:21 22° 283° (WNW) 04:37:22 435.225
SRMSAT 29 Mar 04:34:41 04:39:55 32° 161° (SSE) 04:45:09 437.500
MOZHAYETS 4 29 Mar 05:06:49 05:11:27 81° 79° (E) 05:16:03
BEESAT 29 Mar 05:12:33 05:16:39 28° 257° (WSW) 05:20:45 436.000
AO-7 29 Mar 05:15:10 05:23:29 86° 106° (ESE) 05:31:50 .
ITUPSAT 1 29 Mar 05:31:26 05:34:35 18° 257° (WSW) 05:37:44 437.325
O/OREOS (USA 219) 29 Mar 05:42:30 05:45:50 20° 256° (WSW) 05:49:11 437.305
ITAMSAT 1 29 Mar 05:47:33 05:51:38 24° 283° (WNW) 05:55:43 435.822/435.867
NO-84 29 Mar 05:58:05 05:59:44 13° 300° (WNW) 06:01:20 435.350 FM
JUGNU 29 Mar 06:05:59 06:10:52 27° 342° (NNW) 06:15:46 437.505
CUBESAT XI-V 29 Mar 06:06:00 06:10:27 48° 78° (ENE) 06:14:51 437.345
KKS-1 29 Mar 06:06:29 06:10:55 72° 78° (ENE) 06:15:20 437.445
SRMSAT 29 Mar 06:23:14 06:29:12 86° 156° (SSE) 06:35:11 437.500
Tancredo 1 29 Mar 06:32:52 06:36:03 85° 233° (SW) 06:39:15 437.200
STARS 29 Mar 06:35:29 06:39:50 62° 78° (ENE) 06:44:12 437.465
ISS 29 Mar 06:44:34 06:47:50 68° 235° (SW) 06:51:07 437.550
AO-85 29 Mar 07:12:14 07:13:46 12° 70° (ENE) 07:15:21 145.980
XW-2F 29 Mar 07:26:58 07:30:20 33° 101° (ESE) 07:33:44 145.980 - 146.000
DOVE 4 29 Mar 07:29:30 07:34:32 64° 101° (ESE) 07:39:19 437.250
LilacSat-2 29 Mar 07:32:52 07:36:29 47° 101° (ESE) 07:40:09 437.200
M-CUBED/EXP-1 PRIME 29 Mar 07:40:26 07:43:26 30° 74° (ENE) 07:46:34 437.505
NUDT-PHONESAT 29 Mar 07:44:24 07:47:56 50° 101° (E) 07:51:32 437.300
XW-2D 29 Mar 07:54:14 07:57:58 75° 281° (WNW) 08:01:44 145.860 - 145.880
CUTE-I 29 Mar 07:54:44 08:00:02 77° 103° (ESE) 08:05:21 437.470
KAITUO 1B 29 Mar 07:54:55 07:58:36 79° 100° (E) 08:02:20 145.475/437.950
JUGNU 29 Mar 07:57:53 08:00:30 13° 350° (N) 08:03:08 437.505
XW-2B 29 Mar 08:00:16 08:03:58 61° 281° (W) 08:07:42 145.730 - 145.750
STRAND 1 29 Mar 08:02:39 08:05:20 14° 77° (ENE) 08:08:00 437.568
XW-2C 29 Mar 08:10:45 08:14:16 39° 281° (W) 08:17:48 145.795 - 145.815
PCSat 29 Mar 08:10:52 08:13:54 15° 110° (ESE) 08:16:54 145.827
SRMSAT 29 Mar 08:13:04 08:18:28 35° 341° (NNW) 08:23:53 437.500
HO-68 29 Mar 08:21:49 08:27:43 28° 105° (ESE) 08:33:36 435.675
YUBILEINY 29 Mar 08:36:26 08:45:16 84° 93° (E) 08:54:01 435.215
XW-2A 29 Mar 08:47:52 08:51:05 47° 102° (ESE) 08:54:18 145.665 - 145.685
AO-85 29 Mar 08:50:09 08:53:51 28° 247° (WSW) 08:57:48 145.980
SEEDS 29 Mar 09:15:05 09:19:12 53° 101° (ESE) 09:23:21 437.485
CUTE 1.7 + AOD 2 29 Mar 09:27:06 09:31:14 55° 282° (WNW) 09:35:25 437.475
BEESAT 3 29 Mar 09:34:35 09:38:29 61° 69° (ENE) 09:42:19 437.485
ZACube-1 29 Mar 09:34:48 09:37:04 14° 102° (ESE) 09:39:21 437.345
CUBEBUG 2 29 Mar 09:37:47 09:41:56 70° 101° (ESE) 09:46:03 437.445
STRAND 1 29 Mar 09:39:35 09:44:13 34° 257° (WSW) 09:48:51 437.568
PCSat 29 Mar 09:52:08 09:57:01 35° 289° (WNW) 10:01:53 145.827
BEESAT 2 29 Mar 09:56:34 10:00:12 34° 68° (ENE) 10:03:48 435.950
AO-73 29 Mar 10:00:10 10:03:48 30° 102° (ESE) 10:07:27 145.935
SRMSAT 29 Mar 10:04:35 10:08:08 16° 347° (NNW) 10:11:42 437.500
HO-68 29 Mar 10:08:54 10:15:06 32° 284° (WNW) 10:21:20 435.675
PRISM 29 Mar 10:20:42 10:21:43 11° 78° (ENE) 10:22:43 437.425
AAUSAT CUBESAT 2 29 Mar 10:27:07 10:30:49 31° 281° (W) 10:34:32 437.432
UWE-3 29 Mar 10:35:03 10:38:41 30° 282° (WNW) 10:42:21 435.000/436.395/437.385
Oscar 11 29 Mar 10:56:29 11:00:34 44° 281° (WNW) 11:04:42 .
FO-29 29 Mar 10:59:30 11:04:50 20° 76° (ENE) 11:10:08 435.910
ZACube-1 29 Mar 11:10:04 11:13:05 20° 281° (WNW) 11:16:07 437.345
DELFI C3 29 Mar 11:21:11 11:25:11 90° 162° (SSE) 11:29:13 145.870
JUGNU 29 Mar 11:38:03 11:40:46 13° 11° (N) 11:43:29 437.505
TIGRISAT 29 Mar 11:45:38 11:50:20 82° 77° (ENE) 11:55:01 435.000
PRISM 29 Mar 11:53:23 11:56:44 25° 258° (WSW) 12:00:05 437.425
UNISAT 6 29 Mar 11:56:44 12:01:23 64° 258° (WSW) 12:06:01 437.425
SRMSAT 29 Mar 11:58:05 11:58:22 10° 357° (N) 11:58:39 437.500
LO-87 29 Mar 12:05:26 12:08:15 21° 101° (E) 12:11:02 145.935 - 145.965
ESTCUBE 1 29 Mar 12:07:57 12:09:26 11° 103° (ESE) 12:10:55 437.505/2401.250
RS-15 29 Mar 12:22:57 12:34:22 81° 110° (ESE) 12:46:22 29.354- 29.394
QB50P2 29 Mar 12:27:57 12:29:58 13° 78° (ENE) 12:31:58 145.880/145.840
DUCHIFAT 1 29 Mar 12:36:06 12:37:39 12° 78° (ENE) 12:39:11 145.980
FO-29 29 Mar 12:41:55 12:49:25 53° 257° (WSW) 12:56:58 435.910
AIST 2D 29 Mar 12:56:44 13:00:18 75° 79° (E) 13:03:50 435.315
VELOX 1 29 Mar 13:06:38 13:09:27 16° 102° (ESE) 13:12:14 145.980
NANOSAT C BR1 29 Mar 13:21:00 13:25:14 67° 79° (ENE) 13:29:27 145.865
JUGNU 29 Mar 13:25:26 13:30:25 27° 18° (NNE) 13:35:26 437.505
EO-79 29 Mar 13:27:24 13:31:41 87° 260° (W) 13:35:56 145.935-145.965
SPROUT 29 Mar 13:28:08 13:31:43 27° 102° (ESE) 13:35:20 437.525
SO-50 29 Mar 13:41:22 13:45:55 46° 112° (ESE) 13:50:24 436.795
ESTCUBE 1 29 Mar 13:41:57 13:45:56 31° 282° (WNW) 13:49:58 437.505/2401.250
SRMSAT 29 Mar 13:46:41 13:48:45 12° 8° (N) 13:50:51 437.500
POLYITAN 1 29 Mar 13:56:54 14:00:42 31° 258° (WSW) 14:04:30 437.675
QB50P2 29 Mar 14:02:00 14:05:28 24° 258° (WSW) 14:08:57 145.880/145.840
DX 1 29 Mar 14:08:54 14:12:58 39° 102° (ESE) 14:17:02 434.975-435.025
DUCHIFAT 1 29 Mar 14:09:28 14:13:03 26° 258° (WSW) 14:16:37 145.980
BUGSAT 1 29 Mar 14:12:56 14:17:07 80° 80° (E) 14:21:19 437.445
50 SAT 29 Mar 14:18:41 14:22:10 66° 281° (W) 14:25:39 437.505
RS-15 29 Mar 14:40:35 14:46:46 16° 294° (WNW) 14:53:09 29.354- 29.394
VELOX 1 29 Mar 14:42:14 14:45:37 22° 282° (WNW) 14:49:00 145.980
UKube-1 29 Mar 14:42:40 14:46:59 78° 102° (ESE) 14:51:19 .
Oscar 19 29 Mar 14:49:01 14:53:58 49° 77° (ENE) 14:58:52 437.125/150
SPROUT 29 Mar 15:06:00 15:07:22 11° 282° (WNW) 15:08:44 437.525
